www.pogodaiklimat.ru

Погода и климат >> Архив погоды >> Россия >> Якутия >> Тонгулах


ПОГОДА в Тонгулахе

  • Прогноз погоды в Тонгулахе
  • Монитор погоды в Тонгулахе
  • Климат города

АРХИВ ПОГОДЫ в Тонгулахе

Время (UTC), дата Ветер
(напр.,м/с)
 
Видим.   Явления Облачность Т
(С)
Тd
(С)
f
(%)
Тe
(С)
Тes
(С)
Комфортность P
(гПа)
Po
(гПа)
Тmin
(С)
Tmax
(С)
R
(мм)
R24
(мм)
S
(см)
15 14.06 штиль 0 20 км 8/0
[Ac trans]
+12.4 +8.4 77 +12 +12 1015.0 991.3
18 14.06 штиль 0 50 км 10/0
[Ac As]
+11.0 +7.9 81 +10 +10 1015.5 991.6
21 14.06 штиль 0 50 км 8/0
[Ac trans]
+10.5 +8.7 89 +10 +11 1015.5 991.6
00 15.06 штиль 0 50 км 9/0
[Ac As]
+17.7 +8.2 54 +18 +22 1015.3 992.0 +10.4
03 15.06 ЮЗ 1 50 км 6/6 600 м
[Cu med, cong]
+22.3 +7.6 39 +23 +30 комфорт 1014.3 991.3
06 15.06 Ю 1 50 км 8/8 600 м
[Cu med, cong]
+24.1 +9.0 38 +25 +27 комфорт 1012.5 989.7
09 15.06 ЮЗ 1 50 км 4/4 600 м
[Cu med, cong]
+24.1 +9.2 39 +25 +28 комфорт 1011.3 988.5
12 15.06 штиль 0 50 км 6/0
[Ac cast Ci fib]
+20.9 +11.8 56 +23 +23 комфорт 1011.2 988.1 +25.9
15 15.06 штиль 0 20 км ясно +10.8 +8.1 83 +10 +10 1012.0 988.1
18 15.06 штиль 0 50 км ясно +9.9 +7.6 86 +9 +9 1012.0 988.0
21 15.06 штиль 0 50 км 8/0
[Ci fib]
+10.1 +7.2 82 +9 +11 1010.1 985.4
00 16.06 СЗ 1 50 км 8/0
[Ci fib]
+21.7 +11.7 53 +24 +32 комфорт 1007.6 984.7 +9.8
03 16.06 СЗ 2 50 км 10/5 1000 м
[Cu med, cong Ci fib]
+24.5 +10.0 40 +25 +31 комфорт 1005.5 982.9
06 16.06 СЗ 2 50 км 6/5 1000 м
[Cu med, cong Ci fib]
+27.3 +13.7 43 +29 +35 жарко 1003.0 980.7
09 16.06 СЗ 2 50 км 4/0
[Ci fib]
+26.1 +12.7 43 +28 +32 жарко 1002.2 979.8
12 16.06 штиль 0 50 км ясно +21.5 +9.9 48 +23 +23 комфорт 1002.4 979.7 +27.7
15 16.06 штиль 0 20 км ясно +16.9 +13.9 82 +17 +17 1003.0 979.9
18 16.06 штиль 0 50 км ясно +14.7 +12.5 87 +14 +14 1003.6 980.3
21 16.06 штиль 0 50 км ясно +5.4 +0.8 72 +5 +7 1003.5 979.4
00 17.06 штиль 0 50 км 6/0
[Cs]
+17.4 +6.5 49 +17 +27 1001.4 978.3 +5.2
03 17.06 штиль 0 50 км 10/0
[Ac As]
+20.0 +9.0 49 +21 +26 комфорт 1000.4 977.5
06 17.06 штиль 0 50 км {дождь} 8/0
[As trans]
+13.4 +10.3 81 +13 +21 1001.9 978.5
09 17.06 штиль 0 50 км 8/0
[Ac trans]
+16.0 +9.5 65 +16 +19 1001.1 977.9
12 17.06 штиль 0 50 км 8/0
[Ac trans Ci fib]
+16.4 +10.4 68 +16 +17 1000.8 977.7 +21.4 0.0
15 17.06 штиль 0 20 км 8/0
[As trans]
+5.8 +5.0 95 +5 +5 1002.5 978.5
18 17.06 штиль 0 50 км 6/0
[As trans]
+5.2 +4.0 92 +4 +4 1003.0 978.9
21 17.06 штиль 0 50 км 10/0
[Ac trans]
+4.8 +2.6 86 +4 +5 1004.0 979.9
00 18.06 ЮЗ 1 50 км 6/0
[Ac trans Ci fib]
+15.1 +3.8 47 +16 +23 1003.1 979.8 +4.7
03 18.06 ЮЗ 1 50 км 8/6 600 м
[Cb calv Ci fib]
+17.7 +6.7 48 +19 +25 1002.5 979.4
06 18.06 З 1 50 км {ливн. осадки} 9/9 600 м
[Cb cap]
+12.1 +8.5 79 +12 +13 1004.0 980.5
09 18.06 З 1 50 км 8/4 600 м
[Cu med, cong Ci fib]
+16.9 +8.1 56 +18 +20 1003.6 980.5
12 18.06 штиль 0 50 км 6/0
[Ac trans Ci sp]
+15.3 +8.4 63 +15 +15 1004.7 981.4 +18.9 1
15 18.06 штиль 0 20 км 6/0
[Ci sp]
+5.0 +4.1 94 +4 +4 1006.5 982.4
18 18.06 штиль 0 50 км 6/0
[Ci sp]
+4.3 +3.6 95 +3 +3 1007.4 983.0
21 18.06 штиль 0 50 км 8/8 1000 м
[Sc]
+4.5 +3.0 90 +3 +4 1007.5 983.1
00 19.06 штиль 0 50 км 10/0
[Ac As]
+12.7 +7.4 70 +12 +16 1005.9 983.3 +4.2
03 19.06 штиль 0 50 км 8/0
[Ac trans]
+14.9 +8.8 67 +15 +24 1006.5 983.1
06 19.06 штиль 0 50 км 6/6 1000 м
[Cu med, cong]
+21.5 +6.9 39 +22 +28 комфорт 1004.0 981.3
09 19.06 штиль 0 50 км 8/8 1000 м
[Sc Ci fib]
+22.0 +5.0 33 +22 +23 комфорт 1003.1 980.4
12 19.06 штиль 0 50 км 4/0
[Ac trans]
+18.0 +9.2 56 +18 +18 1003.5 980.4 +22.6
15 19.06 штиль 0 20 км 3/0
[Ac trans]
+8.5 +7.0 90 +8 +8 1003.8 980.0
18 19.06 штиль 0 50 км 4/0
[Ac trans]
+7.2 +6.1 93 +6 +6 1003.5 979.5
21 19.06 штиль 0 50 км 8/0
[Ac trans]
+8.0 +5.3 83 +7 +8 1003.6 979.7
00 20.06 штиль 0 50 км 8/0
[Ac trans]
+14.8 +11.1 78 +15 +20 1002.3 979.0 +7.0
03 20.06 штиль 0 50 км 6/0
[Ac trans]
+21.4 +12.2 56 +24 +35 комфорт 1000.7 978.0
06 20.06 штиль 0 50 км 8/8 1000 м
[Sc]
+23.0 +14.6 59 +27 +30 душно 998.9 976.4
09 20.06 штиль 0 50 км {дождь} 8/0
[Ac trans]
+15.4 +14.0 91 +15 +18 1000.3 977.1
12 20.06 штиль 0 50 км 8/0
[Ac trans]
+15.8 +14.1 90 +16 +16 999.5 975.5 +23.3 5
15 20.06 штиль 0 20 км 8/0
[Ac trans]
+8.2 +7.7 97 +7 +7 1000.1 975.3
18 20.06 штиль 0 50 км 6/0
[Ac trans]
+5.0 +9.3 100 +4 +4 999.9 976.0
21 20.06 штиль 0 20 км слабый ливневой дождь 10/10 600 м
[Cb cap]
+9.8 +9.6 99 +9 +9 999.4 975.8
00 21.06 50 км {ливн. осадки} н/о +12.9 +12.0 94 +12 +13 999.5 976.2 +5.8 3
03 21.06 Ю 1 50 км 10/10 600 м
[Cb cap]
+15.7 +13.4 86 +16 +16 999.9 977.8
06 21.06 ЮВ 1 50 км 10/6 1000 м
[Cb cap As op]
+15.9 +12.8 82 +17 +18 1000.4 977.3
09 21.06 штиль 0 50 км 9/6 600 м
[Sc Ac trans]
+17.1 +12.8 76 +17 +18 1000.8 977.7
12 21.06 штиль 0 50 км 8/8 600 м
[Sc]
+14.9 +12.2 84 +15 +15 1002.2 978.9 +17.6

 

Местоположение метеостанции Тонгулах (Якутия, Россия): широта 61.92 долгота 124.50 высота над уровнем моря 199 м.

В архиве по умолчанию представлена погода в Тонгулахе за последнюю неделю. Архивные данные за месяц целиком и за предыдущие месяцы, начиная с января 2011 года, Вы можете получить, выбрав интересующий диапазон дат из раскрывающегося списка и нажав кнопку "Ввод!".


*Определитесь, кто Вы:
робот инопланетянин человек

Внимание! Время в таблицах - всемирное. Для получения местного времени необходимо прибавить поправку, которая в Тонгулахе равна 9 ч.

Смотрите также архив погоды в соседних городах и на ближайших метеорологических станциях:

Погода в Исите (Якутия, Россия) (130 км)
Погода в Бердигестяхе (Якутия, Россия) (136 км)
Погода в Хатырык-Хомо (Якутия, Россия) (226 км)
Погода в Покровске (Якутия, Россия) (247 км)
Погода в Вилюйске (Якутия, Россия) (253 км)
Погода в Якутске (Якутия, Россия) (267 км)
Погода в Сангаре (Якутия, Россия) (269 км)
Погода в Олекминске (Якутия, Россия) (277 км)
Погода в Верхневилюйске (Якутия, Россия) (278 км)
Погода в Намцах (Якутия, Россия) (278 км)

Пояснения к столбцам:

Ветер - указаны скорость ветра в м/с - средняя за 10 мин, порывы в срок и между сроками (в фигурных скобках) и направление, откуда дует ветер: С - северный, СВ - северо-восточный, В - восточный, ЮВ - юго-восточный, Ю - южный, ЮЗ - юго-западный, З - западный, СЗ - северо-западный.
Видимость - горизонтальная дальность видимости в метрах или километрах. При видимости от 1 до 10 км при отсутствии осадков обычно наблюдается дымка, при ухудшении видимости до 1 км и менее - туман. В сухую погоду видимость может ухудшаться дымом, пылью или мглою.
Явления - указаны атмосферные явления, наблюдавшиеся в срок или в последний час перед сроком; фигурными скобками обозначены явления, наблюдавшиеся между сроками (за 1-3 часа до срока); квадратными скобками обозначены град или гололедные отложения с указанием их диаметра в мм.
Облачность - указаны через наклонную черту общая и нижняя облачность в баллах и высота нижней границы облаков в метрах; квадратными скобками обозначены формы облаков: Ci - перистые, Cs - перисто-слоистые, Cc - перисто-кучевые, Ac - высококучевые, As - высокослоистые, Sc - слоисто-кучевые, Ns - слоисто-дождевые, Cu - кучевые, Cb - кучево-дождевые. Подробнее классификацию облаков см. в Атласе облаков (PDF).
T - Температура воздуха - температура, измеренная на высоте 2 м над землей.
Td - Температура точки росы - температура, при понижении до которой содержащийся в воздухе водяной пар достигнет насыщения.
f - Относительная влажность воздуха - влажноcть воздуха, измеренная на высоте 2 м над землей.
Te - Эффективная температура - температура, которую ощущает одетый по сезону человек в тени. Характеристика душности погоды. При расчете учитывается влияние влажности воздуха и скорости ветра на теплоощущения человека.
Tes - Эффективная температура на солнце - температура, которую ощущает человек, с поправкой на солнечный нагрев. Характеристика знойности погоды. Зависит от высоты солнца над горизонтом, облачности и скорости ветра. Ночью, в пасмурную погоду, а также при ветре 12 м/с и более поправка равна нулю.
P - Атмосферное давление - приведенное к уровню моря атмосферное давление.
Po - Атмосферное давление - измеренное на уровне метеостанции атмосферное давление.
Tmin - Минимальная температура - минимум температуры воздуха на высоте 2 м над землей.
Tmax - Максимальная температура - максимум температуры воздуха на высоте 2 м над землей.
R - Количество осадков - Количество выпавших осадков за период времени, мм. При наведении курсора мыши на число - период времени, за который выпало указанное количество осадков.
R24 - Количество осадков - Количество выпавших осадков за 24 часа, мм.
S - Снежный покров - Высота снежного покрова, см. При наведении курсора мыши на число - состояние снежного покрова и степень покрытия местности в баллах.